Time,TemperatureF,DewpointF,PressureIn,WindDirection,WindDirectionDegrees,WindSpeedMPH,WindSpeedGustMPH,Humidity,HourlyPrecipIn,Conditions,Clouds,dailyrainin,SoftwareType,DateUTC
2013-07-28 00:02:00,64.0,60.0,-100.00,SSE,155,4.0,6.0,86,0.00,,,-99.99,,2013-07-28 04:02:00,
2013-07-28 00:12:00,64.0,60.0,-100.00,South,180,4.0,7.0,87,0.00,,,-99.99,,2013-07-28 04:12:00,
2013-07-28 00:22:00,64.0,60.0,-100.00,South,175,3.0,6.0,87,0.00,,,-99.99,,2013-07-28 04:22:00,
2013-07-28 00:32:00,64.0,60.0,-100.00,SSE,155,5.0,7.0,87,0.00,,,-99.99,,2013-07-28 04:32:00,
2013-07-28 00:43:00,64.0,60.0,-100.00,SSE,155,6.0,7.0,86,0.00,,,-99.99,,2013-07-28 04:43:00,
2013-07-28 00:53:00,64.0,60.0,-100.00,South,180,4.0,7.0,85,0.00,,,-99.99,,2013-07-28 04:53:00,
2013-07-28 01:02:00,64.0,59.0,-100.00,South,180,4.0,7.0,85,0.00,,,-99.99,,2013-07-28 05:02:00,
2013-07-28 01:12:00,64.0,59.0,-100.00,SSW,200,4.0,6.0,85,0.00,,,-99.99,,2013-07-28 05:12:00,
2013-07-28 01:22:00,64.0,59.0,-100.00,West,275,4.0,6.0,85,0.00,,,-99.99,,2013-07-28 05:22:00,
2013-07-28 01:32:00,63.0,59.0,-100.00,South,190,3.0,6.0,86,0.00,,,-99.99,,2013-07-28 05:32:00,
2013-07-28 01:43:00,63.0,59.0,-100.00,SSW,195,2.0,4.0,87,0.00,,,-99.99,,2013-07-28 05:43:00,
2013-07-28 01:52:00,63.0,59.0,-100.00,SW,220,2.0,6.0,87,0.00,,,-99.99,,2013-07-28 05:52:00,
2013-07-28 02:02:00,63.0,59.0,-100.00,SW,225,2.0,4.0,87,0.00,,,-99.99,,2013-07-28 06:02:00,
2013-07-28 02:12:00,62.0,59.0,-100.00,West,275,2.0,3.0,88,0.00,,,-99.99,,2013-07-28 06:12:00,
2013-07-28 02:22:00,62.0,59.0,-100.00,SSW,205,2.0,3.0,88,0.00,,,-99.99,,2013-07-28 06:22:00,
2013-07-28 02:32:00,62.0,58.0,-100.00,South,180,4.0,6.0,89,0.00,,,-99.99,,2013-07-28 06:32:00,
2013-07-28 02:43:00,62.0,59.0,-100.00,South,170,2.0,6.0,89,0.00,,,-99.99,,2013-07-28 06:43:00,
2013-07-28 02:52:00,62.0,59.0,-100.00,SSW,210,4.0,8.0,90,0.00,,,-99.99,,2013-07-28 06:52:00,
2013-07-28 03:02:00,63.0,59.0,-100.00,WSW,250,9.0,19.0,85,0.00,,,-99.99,,2013-07-28 07:02:00,
2013-07-28 03:12:00,63.0,59.0,-100.00,WSW,255,6.0,14.0,87,0.00,,,-99.99,,2013-07-28 07:12:00,
2013-07-28 03:23:00,62.0,58.0,-100.00,SW,235,3.0,7.0,88,0.00,,,-99.99,,2013-07-28 07:23:00,
2013-07-28 03:32:00,62.0,58.0,-100.00,South,175,1.0,4.0,88,0.00,,,-99.99,,2013-07-28 07:32:00,
2013-07-28 03:43:00,62.0,58.0,-100.00,SE,145,3.0,4.0,89,0.00,,,-99.99,,2013-07-28 07:43:00,
2013-07-28 03:53:00,62.0,58.0,-100.00,SW,235,1.0,2.0,89,0.00,,,-99.99,,2013-07-28 07:53:00,
2013-07-28 04:02:00,62.0,58.0,-100.00,WSW,245,1.0,2.0,89,0.00,,,-99.99,,2013-07-28 08:02:00,
2013-07-28 04:12:00,62.0,58.0,-100.00,West,260,1.0,2.0,89,0.00,,,-99.99,,2013-07-28 08:12:00,
2013-07-28 04:22:00,61.0,58.0,-100.00,NW,305,1.0,2.0,89,0.00,,,-99.99,,2013-07-28 08:22:00,
2013-07-28 04:33:00,61.0,58.0,-100.00,WNW,290,2.0,4.0,90,0.00,,,-99.99,,2013-07-28 08:33:00,
2013-07-28 04:42:00,60.0,58.0,-100.00,WNW,285,3.0,6.0,90,0.00,,,-99.99,,2013-07-28 08:42:00,
2013-07-28 04:53:00,60.0,58.0,-100.00,SSE,150,1.0,4.0,90,0.00,,,-99.99,,2013-07-28 08:53:00,
2013-07-28 05:02:00,60.0,57.0,-100.00,SE,145,1.0,1.0,90,0.00,,,-99.99,,2013-07-28 09:02:00,
2013-07-28 05:12:00,60.0,57.0,-100.00,SE,145,2.0,3.0,90,0.00,,,-99.99,,2013-07-28 09:12:00,
2013-07-28 05:22:00,60.0,57.0,-100.00,SE,135,1.0,3.0,91,0.00,,,-99.99,,2013-07-28 09:22:00,
2013-07-28 05:32:00,60.0,57.0,-100.00,SSE,150,2.0,3.0,91,0.00,,,-99.99,,2013-07-28 09:32:00,
2013-07-28 05:43:00,60.0,58.0,-100.00,SW,225,1.0,2.0,91,0.00,,,-99.99,,2013-07-28 09:43:00,
2013-07-28 05:53:00,60.0,58.0,-100.00,South,185,2.0,2.0,91,0.00,,,-99.99,,2013-07-28 09:53:00,
2013-07-28 06:02:00,60.0,58.0,-100.00,SSW,195,1.0,3.0,91,0.00,,,-99.99,,2013-07-28 10:02:00,
2013-07-28 06:12:00,60.0,58.0,-100.00,SSW,200,1.0,2.0,91,0.00,,,-99.99,,2013-07-28 10:12:00,
2013-07-28 06:22:00,60.0,58.0,-100.00,South,175,1.0,3.0,91,0.00,,,-99.99,,2013-07-28 10:22:00,
2013-07-28 06:33:00,60.0,57.0,-100.00,South,170,1.0,2.0,91,0.00,,,-99.99,,2013-07-28 10:33:00,
2013-07-28 06:42:00,60.0,57.0,-100.00,SSW,205,1.0,3.0,91,0.00,,,-99.99,,2013-07-28 10:42:00,
2013-07-28 06:52:00,59.0,57.0,-100.00,SW,220,2.0,4.0,91,0.00,,,-99.99,,2013-07-28 10:52:00,
2013-07-28 07:12:00,59.0,57.0,-100.00,WSW,250,2.0,4.0,90,0.00,,,-99.99,,2013-07-28 11:12:00,
2013-07-28 07:22:00,59.0,57.0,-100.00,WSW,255,2.0,4.0,90,0.00,,,-99.99,,2013-07-28 11:22:00,
2013-07-28 07:33:00,60.0,57.0,-100.00,WSW,245,2.0,3.0,90,0.00,,,-99.99,,2013-07-28 11:33:00,
2013-07-28 07:43:00,60.0,56.0,-100.00,SW,225,3.0,4.0,88,0.00,,,-99.99,,2013-07-28 11:43:00,
2013-07-28 07:54:00,60.0,56.0,-100.00,WSW,255,4.0,6.0,87,0.00,,,-99.99,,2013-07-28 11:54:00,
2013-07-28 08:02:00,60.0,56.0,-100.00,SW,230,3.0,6.0,87,0.00,,,-99.99,,2013-07-28 12:02:00,
2013-07-28 08:12:00,60.0,55.0,-100.00,SW,230,4.0,7.0,81,0.00,,,-99.99,,2013-07-28 12:12:00,
2013-07-28 08:22:00,60.0,54.0,-100.00,WSW,250,4.0,9.0,80,0.00,,,-99.99,,2013-07-28 12:22:00,
2013-07-28 08:33:00,59.0,53.0,-100.00,WSW,255,4.0,7.0,78,0.00,,,-99.99,,2013-07-28 12:33:00,
2013-07-28 08:43:00,60.0,53.0,-100.00,WSW,255,3.0,7.0,78,0.00,,,-99.99,,2013-07-28 12:43:00,
2013-07-28 08:53:00,60.0,53.0,-100.00,WSW,255,2.0,6.0,79,0.00,,,-99.99,,2013-07-28 12:53:00,
2013-07-28 09:02:00,60.0,53.0,-100.00,SW,215,4.0,6.0,78,0.00,,,-99.99,,2013-07-28 13:02:00,
2013-07-28 09:12:00,60.0,53.0,-100.00,SSW,210,4.0,6.0,77,0.00,,,-99.99,,2013-07-28 13:12:00,
2013-07-28 09:22:00,62.0,52.0,-100.00,WSW,250,6.0,7.0,71,0.00,,,-99.99,,2013-07-28 13:22:00,
2013-07-28 09:32:00,63.0,52.0,-100.00,WSW,245,5.0,7.0,65,0.00,,,-99.99,,2013-07-28 13:32:00,
2013-07-28 09:53:00,64.0,51.0,-100.00,SW,220,6.0,8.0,62,0.00,,,-99.99,,2013-07-28 13:53:00,
2013-07-28 10:12:00,64.0,50.0,-100.00,West,260,7.0,11.0,59,0.00,,,-99.99,,2013-07-28 14:12:00,
2013-07-28 10:23:00,65.0,52.0,-100.00,West,260,5.0,11.0,62,0.00,,,-99.99,,2013-07-28 14:23:00,
2013-07-28 10:33:00,66.0,50.0,-100.00,SW,220,7.0,10.0,56,0.00,,,-99.99,,2013-07-28 14:33:00,
2013-07-28 10:43:00,66.0,49.0,-100.00,SSW,200,7.0,12.0,54,0.00,,,-99.99,,2013-07-28 14:43:00,
2013-07-28 11:03:00,67.0,49.0,-100.00,WSW,240,6.0,12.0,53,0.00,,,-99.99,,2013-07-28 15:03:00,
2013-07-28 11:22:00,67.0,48.0,-100.00,SW,235,9.0,14.0,50,0.00,,,-99.99,,2013-07-28 15:22:00,
2013-07-28 11:32:00,66.0,48.0,-100.00,SW,235,7.0,14.0,51,0.00,,,-99.99,,2013-07-28 15:32:00,
2013-07-28 11:43:00,67.0,48.0,-100.00,SW,235,7.0,14.0,50,0.00,,,-99.99,,2013-07-28 15:43:00,
2013-07-28 11:53:00,67.0,48.0,-100.00,SW,215,7.0,14.0,50,0.00,,,-99.99,,2013-07-28 15:53:00,
2013-07-28 12:03:00,67.0,48.0,-100.00,SW,220,7.0,13.0,49,0.00,,,-99.99,,2013-07-28 16:03:00,
2013-07-28 12:12:00,68.0,47.0,-100.00,WSW,240,6.0,12.0,46,0.00,,,-99.99,,2013-07-28 16:12:00,
2013-07-28 12:22:00,68.0,47.0,-100.00,West,260,9.0,14.0,48,0.00,,,-99.99,,2013-07-28 16:22:00,
2013-07-28 12:33:00,67.0,48.0,-100.00,WSW,255,7.0,16.0,51,0.00,,,-99.99,,2013-07-28 16:33:00,
2013-07-28 12:43:00,67.0,46.0,-100.00,SW,220,7.0,15.0,47,0.00,,,-99.99,,2013-07-28 16:43:00,
2013-07-28 12:52:00,67.0,47.0,-100.00,SW,220,9.0,13.0,48,0.00,,,-99.99,,2013-07-28 16:52:00,
2013-07-28 13:02:00,68.0,48.0,-100.00,SW,220,7.0,12.0,48,0.00,,,-99.99,,2013-07-28 17:02:00,
2013-07-28 13:13:00,68.0,46.0,-100.00,SW,230,11.0,16.0,45,0.00,,,-99.99,,2013-07-28 17:13:00,
2013-07-28 13:23:00,69.0,47.0,-100.00,SSW,205,9.0,17.0,44,0.00,,,-99.99,,2013-07-28 17:23:00,
2013-07-28 13:32:00,69.0,48.0,-100.00,SSW,210,11.0,22.0,47,0.00,,,-99.99,,2013-07-28 17:32:00,
2013-07-28 13:43:00,68.0,48.0,-100.00,SW,215,10.0,15.0,48,0.00,,,-99.99,,2013-07-28 17:43:00,
2013-07-28 13:53:00,68.0,47.0,-100.00,SSW,195,7.0,17.0,47,0.00,,,-99.99,,2013-07-28 17:53:00,
2013-07-28 14:03:00,69.0,46.0,-100.00,SW,215,11.0,19.0,44,0.00,,,-99.99,,2013-07-28 18:03:00,
2013-07-28 14:13:00,69.0,46.0,-100.00,South,190,9.0,16.0,44,0.00,,,-99.99,,2013-07-28 18:13:00,
2013-07-28 14:22:00,69.0,48.0,-100.00,SW,230,7.0,19.0,46,0.00,,,-99.99,,2013-07-28 18:22:00,
2013-07-28 14:33:00,69.0,47.0,-100.00,SW,215,11.0,17.0,45,0.00,,,-99.99,,2013-07-28 18:33:00,
2013-07-28 14:43:00,69.0,49.0,-100.00,West,265,9.0,15.0,47,0.00,,,-99.99,,2013-07-28 18:43:00,
2013-07-28 14:52:00,69.0,48.0,-100.00,SW,230,12.0,19.0,46,0.00,,,-99.99,,2013-07-28 18:52:00,
2013-07-28 15:02:00,69.0,47.0,-100.00,SW,230,11.0,20.0,46,0.00,,,-99.99,,2013-07-28 19:02:00,
2013-07-28 15:12:00,69.0,48.0,-100.00,South,170,11.0,16.0,47,0.00,,,-99.99,,2013-07-28 19:12:00,
2013-07-28 15:22:00,69.0,49.0,-100.00,SW,215,9.0,16.0,49,0.00,,,-99.99,,2013-07-28 19:22:00,
2013-07-28 15:33:00,70.0,49.0,-100.00,SW,225,8.0,12.0,47,0.00,,,-99.99,,2013-07-28 19:33:00,
2013-07-28 15:43:00,69.0,49.0,-100.00,WSW,240,7.0,13.0,49,0.00,,,-99.99,,2013-07-28 19:43:00,
2013-07-28 15:52:00,69.0,50.0,-100.00,SSW,195,4.0,13.0,50,0.00,,,-99.99,,2013-07-28 19:52:00,
2013-07-28 16:02:00,70.0,51.0,-100.00,SW,220,9.0,13.0,51,0.00,,,-99.99,,2013-07-28 20:02:00,
2013-07-28 16:13:00,68.0,50.0,-100.00,SSW,200,7.0,14.0,52,0.00,,,-99.99,,2013-07-28 20:13:00,
2013-07-28 16:23:00,68.0,50.0,-100.00,SSW,210,9.0,16.0,51,0.00,,,-99.99,,2013-07-28 20:23:00,
2013-07-28 16:33:00,68.0,51.0,-100.00,SSW,195,7.0,16.0,54,0.00,,,-99.99,,2013-07-28 20:33:00,
2013-07-28 16:43:00,67.0,50.0,-100.00,South,185,6.0,12.0,54,0.00,,,-99.99,,2013-07-28 20:43:00,
2013-07-28 16:52:00,67.0,50.0,-100.00,SSW,210,9.0,12.0,54,0.00,,,-99.99,,2013-07-28 20:52:00,
2013-07-28 17:03:00,67.0,51.0,-100.00,SW,235,6.0,10.0,56,0.00,,,-99.99,,2013-07-28 21:03:00,
2013-07-28 17:13:00,67.0,51.0,-100.00,SW,230,5.0,9.0,56,0.00,,,-99.99,,2013-07-28 21:13:00,
2013-07-28 17:22:00,67.0,52.0,-100.00,SW,225,6.0,11.0,57,0.00,,,-99.99,,2013-07-28 21:22:00,
2013-07-28 17:33:00,68.0,51.0,-100.00,West,265,5.0,9.0,55,0.00,,,-99.99,,2013-07-28 21:33:00,
2013-07-28 17:44:00,68.0,52.0,-100.00,SSW,200,7.0,12.0,57,0.00,,,-99.99,,2013-07-28 21:44:00,
2013-07-28 17:52:00,67.0,51.0,-100.00,WSW,250,7.0,10.0,56,0.00,,,-99.99,,2013-07-28 21:52:00,
2013-07-28 18:02:00,67.0,52.0,-100.00,SW,235,6.0,10.0,58,0.00,,,-99.99,,2013-07-28 22:02:00,
2013-07-28 18:12:00,67.0,51.0,-100.00,SW,225,6.0,9.0,57,0.00,,,-99.99,,2013-07-28 22:12:00,
2013-07-28 18:22:00,67.0,52.0,-100.00,SW,230,4.0,7.0,58,0.00,,,-99.99,,2013-07-28 22:22:00,
2013-07-28 18:32:00,67.0,51.0,-100.00,SSW,205,5.0,9.0,55,0.00,,,-99.99,,2013-07-28 22:32:00,
2013-07-28 18:43:00,67.0,51.0,-100.00,SSW,205,7.0,12.0,55,0.00,,,-99.99,,2013-07-28 22:43:00,
2013-07-28 18:52:00,68.0,51.0,-100.00,SSW,210,8.0,11.0,54,0.00,,,-99.99,,2013-07-28 22:52:00,
2013-07-28 19:03:00,68.0,50.0,-100.00,SSW,195,9.0,13.0,52,0.00,,,-99.99,,2013-07-28 23:03:00,
2013-07-28 19:12:00,68.0,51.0,-100.00,WSW,240,7.0,12.0,54,0.00,,,-99.99,,2013-07-28 23:12:00,
2013-07-28 19:22:00,68.0,50.0,-100.00,SSW,200,6.0,11.0,52,0.00,,,-99.99,,2013-07-28 23:22:00,
2013-07-28 20:03:00,68.0,48.0,-100.00,SW,220,6.0,9.0,48,0.00,,,-99.99,,2013-07-29 00:03:00,
2013-07-28 20:22:00,67.0,49.0,-100.00,SW,230,5.0,9.0,52,0.00,,,-99.99,,2013-07-29 00:22:00,
2013-07-28 20:32:00,66.0,49.0,-100.00,SW,230,6.0,9.0,53,0.00,,,-99.99,,2013-07-29 00:32:00,
2013-07-28 20:43:00,65.0,50.0,-100.00,SSW,200,3.0,6.0,56,0.00,,,-99.99,,2013-07-29 00:43:00,
2013-07-28 20:52:00,65.0,50.0,-100.00,SSW,200,3.0,6.0,56,0.00,,,-99.99,,2013-07-29 00:52:00,
2013-07-28 21:02:00,64.0,50.0,-100.00,SW,230,2.0,6.0,59,0.00,,,-99.99,,2013-07-29 01:02:00,
2013-07-28 21:14:00,64.0,50.0,-100.00,SW,230,1.0,5.0,60,0.00,,,-99.99,,2013-07-29 01:14:00,
2013-07-28 21:29:00,63.0,50.0,-100.00,South,170,1.0,3.0,62,0.00,,,-99.99,,2013-07-29 01:29:00,
2013-07-28 21:37:00,63.0,51.0,-100.00,WSW,245,1.0,3.0,63,0.00,,,-99.99,,2013-07-29 01:37:00,
2013-07-28 21:45:00,62.0,52.0,-100.00,WSW,255,0.0,1.0,69,0.00,,,-99.99,,2013-07-29 01:45:00,
2013-07-28 22:05:00,62.0,51.0,-100.00,SSE,165,2.0,3.0,67,0.00,,,-99.99,,2013-07-29 02:05:00,
2013-07-28 22:14:00,62.0,51.0,-100.00,SSE,165,2.0,4.0,68,0.00,,,-99.99,,2013-07-29 02:14:00,
2013-07-28 22:26:00,62.0,51.0,-100.00,South,185,2.0,4.0,66,0.00,,,-99.99,,2013-07-29 02:26:00,
2013-07-28 22:37:00,62.0,51.0,-100.00,South,180,2.0,3.0,66,0.00,,,-99.99,,2013-07-29 02:37:00,
2013-07-28 22:47:00,62.0,52.0,-100.00,South,175,2.0,3.0,68,0.00,,,-99.99,,2013-07-29 02:47:00,
2013-07-28 22:57:00,62.0,51.0,-100.00,SSE,165,3.0,4.0,65,0.00,,,-99.99,,2013-07-29 02:57:00,
2013-07-28 23:04:00,63.0,50.0,-100.00,SSW,205,3.0,5.0,64,0.00,,,-99.99,,2013-07-29 03:04:00,
2013-07-28 23:17:00,62.0,51.0,-100.00,West,280,4.0,9.0,66,0.00,,,-99.99,,2013-07-29 03:17:00,
2013-07-28 23:36:00,62.0,51.0,-100.00,WNW,300,3.0,6.0,65,0.00,,,-99.99,,2013-07-29 03:36:00,
2013-07-28 23:48:00,62.0,51.0,-100.00,WSW,250,1.0,3.0,66,0.00,,,-99.99,,2013-07-29 03:48:00,
2013-07-28 23:57:00,62.0,51.0,-100.00,West,275,1.0,3.0,66,0.00,,,-99.99,,2013-07-29 03:57:00,